Theta_e
350 348 347 345 344 347 350 347 347 350 349 348 346 343 339 336 333 333 331 331 338 341 348 346 347 359 360 358 359 362 355 356 360 361 358 355 354 353 351 354 353 352 352 351 352 353 353 354 353 353 353 352 350 347 345 341 337 336 336 336 336 335 335 335 336 337 338 339 339 341 343 344 343 344
351 353 350 346 344 346 347 345 346 347 347 344 346 348 346 342 336 334 332 332 337 342 346 352 349 350 353 359 360 362 360 360 360 361 360 357 355 352 349 351 350 351 350 349 349 351 352 353 353 351 349 347 346 345 343 340 337 336 334 334 335 334 334 333 335 336 337 337 338 339 341 342 342 342
355 352 350 349 347 345 344 347 350 351 351 347 347 351 349 348 344 343 334 331 335 348 344 346 351 350 350 357 359 359 360 363 359 361 360 359 357 353 352 351 349 349 349 347 346 348 348 347 345 344 345 343 342 342 341 338 336 335 332 332 333 333 333 333 333 334 334 335 336 338 339 340 341 341
356 353 351 351 350 347 350 349 351 349 350 353 346 347 352 352 348 345 336 334 337 344 347 347 351 354 352 355 354 352 357 364 360 360 358 361 360 355 353 351 349 347 347 345 343 343 343 340 340 342 344 344 343 341 339 337 335 333 332 330 329 331 332 332 332 332 332 334 335 336 338 339 339 340
357 355 352 351 352 351 350 348 350 350 348 348 348 348 348 349 347 343 340 337 339 340 346 351 351 354 356 352 354 354 354 357 359 360 359 360 358 355 353 353 348 346 344 342 341 341 339 337 338 340 342 343 344 343 339 337 334 331 331 328 327 328 330 331 331 331 331 332 333 334 336 337 338 339
358 358 353 352 352 353 350 349 349 349 348 347 345 343 346 345 346 346 342 338 337 337 340 344 347 350 357 351 353 357 356 355 359 358 358 361 357 355 354 352 352 346 344 341 340 339 338 336 336 339 341 342 342 341 338 335 333 331 329 327 326 326 327 329 330 330 330 331 331 333 335 336 337 339
355 355 354 354 354 357 354 352 351 352 351 350 347 346 344 342 342 345 345 341 338 339 341 342 347 346 350 352 352 355 358 359 358 356 355 357 360 360 356 353 353 346 343 341 339 338 338 336 336 336 336 338 339 338 336 332 330 330 326 325 325 324 325 326 327 328 329 330 332 332 334 334 335 337
356 355 353 355 355 355 353 351 351 351 350 350 349 348 348 346 344 343 346 346 343 341 341 343 345 347 349 350 353 357 359 357 357 356 357 358 358 360 360 355 354 350 343 341 339 338 337 335 334 334 334 334 333 332 331 328 326 326 326 325 324 322 321 321 323 325 325 326 328 331 332 333 334 335
357 356 355 354 355 354 352 352 351 352 350 351 349 349 348 349 349 349 347 348 347 344 343 344 347 349 350 352 355 356 356 357 356 355 356 359 359 356 360 359 358 350 343 342 340 337 336 336 335 333 333 332 330 329 328 327 325 326 324 321 321 322 321 320 321 322 322 322 323 328 330 331 331 332
359 357 355 355 354 354 353 353 353 352 352 351 350 349 348 348 349 348 347 347 348 346 345 345 346 346 353 352 351 354 354 353 353 353 355 353 354 354 355 359 358 352 347 344 343 338 336 335 333 334 333 331 329 328 327 327 326 323 319 316 321 323 320 318 319 319 319 319 319 321 326 328 329 330
358 358 357 355 354 354 353 353 353 353 352 352 350 351 350 349 346 348 348 348 347 346 345 344 347 348 349 351 349 352 353 353 355 353 352 351 350 353 355 356 355 351 348 345 343 342 340 339 335 330 329 329 329 327 325 324 324 323 319 315 318 318 317 318 317 316 318 319 319 318 318 319 325 328
357 356 356 356 355 354 354 354 353 353 352 352 351 352 351 350 348 347 347 346 347 346 345 344 345 344 346 347 351 354 352 352 349 349 351 349 349 350 351 356 354 351 348 347 346 341 339 337 336 332 331 331 330 327 326 328 329 327 322 318 321 320 318 318 317 316 316 317 317 318 318 317 319 321
353 353 354 354 353 355 365 363 361 359 359 353 351 352 351 350 349 349 348 347 344 344 346 347 347 345 348 349 349 349 348 348 349 348 348 348 350 351 349 352 357 353 347 348 346 343 340 338 335 333 331 330 331 330 330 329 332 329 324 321 322 322 319 317 317 317 316 316 316 316 318 317 316 317
349 349 349 352 363 366 367 360 355 351 355 361 357 352 351 350 349 348 347 346 346 346 344 344 345 345 345 347 348 348 349 349 348 348 348 346 349 347 349 351 351 355 349 346 344 345 342 338 337 332 331 332 335 332 329 327 326 326 325 324 322 323 321 317 317 316 315 315 316 315 315 316 316 315
348 347 347 347 355 364 367 362 354 349 347 349 355 358 359 360 352 348 347 346 346 345 345 345 344 344 344 346 348 348 350 350 350 349 348 347 346 344 342 340 345 351 352 347 344 346 342 338 337 336 333 334 331 331 331 329 328 326 325 325 324 322 323 321 318 316 315 315 316 315 314 315 316 315
346 346 346 347 348 348 349 350 351 354 351 345 345 347 351 353 355 356 352 349 347 346 346 346 347 346 346 347 347 348 348 348 347 347 345 344 343 343 341 337 340 346 355 349 345 348 342 338 337 337 338 337 334 333 331 329 326 325 324 324 323 321 322 322 322 319 317 317 318 318 318 317 318 317
344 344 345 345 346 347 359 358 351 346 347 346 343 342 343 346 346 341 342 348 353 350 348 348 347 348 348 348 349 350 349 347 346 345 344 343 342 344 342 343 341 347 354 349 344 344 343 337 340 338 341 342 338 336 332 330 329 326 324 324 323 322 322 322 321 320 320 318 317 315 316 318 319 318
345 344 343 343 344 344 345 346 346 344 344 345 346 346 346 346 350 348 343 343 344 349 352 351 349 351 351 350 351 354 351 348 349 347 345 345 343 343 344 345 345 347 356 350 342 341 340 339 339 338 342 345 344 340 335 330 328 326 324 323 322 322 321 322 320 320 319 318 317 316 314 314 315 316
346 345 344 343 343 343 343 344 346 343 341 341 342 343 345 346 346 346 347 348 348 349 350 353 354 355 354 354 355 356 354 353 354 353 350 349 348 348 346 347 348 350 351 350 344 342 345 343 341 343 346 348 350 350 339 332 329 327 324 323 322 321 321 321 320 320 319 319 317 316 314 312 312 313
347 345 344 343 343 343 342 348 343 348 347 342 340 341 342 344 346 346 350 340 343 350 349 348 350 352 353 346 353 354 353 352 354 356 352 350 351 350 349 348 350 349 349 352 349 345 345 349 347 348 349 347 346 348 346 337 331 328 325 323 322 320 319 320 320 319 319 319 318 316 314 311 310 311
345 344 344 342 342 342 342 342 333 334 347 345 343 342 342 343 344 345 348 339 333 333 333 333 335 334 334 333 330 329 331 340 342 342 341 342 344 342 340 341 341 343 344 348 354 349 346 350 347 347 348 345 344 344 342 336 327 326 325 323 322 320 317 318 318 319 319 318 318 316 315 311 309 311
344 346 353 356 344 343 343 337 331 331 340 342 343 342 342 342 343 345 348 351 349 332 328 329 330 330 331 331 331 331 330 330 336 336 336 341 340 338 338 336 338 340 343 346 353 343 346 349 344 344 340 337 336 338 339 329 326 324 322 320 320 319 318 316 316 318 318 318 317 316 314 312 311 312
341 342 350 355 351 348 343 331 330 329 339 343 344 343 343 342 341 343 345 347 348 350 349 347 343 341 340 341 340 343 336 338 348 340 339 341 339 337 337 337 336 335 337 342 354 346 345 346 344 342 335 335 337 334 331 327 323 323 325 324 321 318 317 315 314 313 316 316 316 315 313 311 311 314
341 342 343 346 334 329 329 327 324 323 324 342 344 344 343 342 341 346 346 346 346 347 348 349 350 350 351 351 350 349 349 349 350 344 341 341 340 339 338 338 337 334 335 337 353 347 344 344 341 339 342 337 332 332 327 325 322 322 322 322 321 320 320 318 316 314 313 313 313 314 313 311 311 312
344 344 345 346 340 326 322 320 320 319 317 324 338 342 344 345 346 349 347 348 360 351 349 348 348 347 347 347 347 347 347 346 346 345 341 342 341 340 339 338 337 337 340 343 346 345 343 339 340 334 335 336 333 331 326 324 323 322 324 322 321 319 318 318 317 315 314 312 311 310 311 311 310 312
343 345 346 347 343 331 324 319 316 312 313 315 332 337 326 326 327 337 346 347 347 347 348 348 347 347 347 347 347 347 348 348 349 348 346 343 342 343 343 341 340 338 340 346 339 346 342 340 341 339 336 332 335 334 328 325 325 322 321 320 320 320 318 318 317 315 314 314 314 311 312 311 312 311
344 346 347 348 346 327 318 314 313 313 312 318 327 319 316 318 321 331 336 340 342 343 345 346 346 346 348 348 349 350 351 351 351 350 349 348 345 345 345 345 345 344 346 347 349 346 343 341 343 341 339 337 334 332 331 329 330 321 320 320 320 319 318 317 316 317 315 314 314 313 310 310 310 311
343 344 346 343 319 310 308 310 311 312 314 323 316 314 315 316 321 329 332 335 338 340 341 342 343 345 347 349 349 350 351 353 353 353 353 351 351 349 348 347 347 348 348 348 348 347 345 344 344 343 342 339 336 335 335 333 331 324 323 323 321 320 319 317 317 319 319 316 314 313 312 311 312 311
341 332 321 314 313 314 312 313 314 318 321 318 315 314 314 321 328 330 332 334 336 337 339 341 343 344 346 348 350 351 352 352 352 352 354 355 355 354 353 352 351 350 350 350 350 350 348 346 345 345 342 341 339 340 338 339 336 330 325 323 320 322 321 319 318 317 318 316 315 314 312 312 311 314
322 317 313 313 313 316 321 329 333 335 336 327 325 323 323 329 330 332 332 334 335 336 338 340 341 343 345 347 349 351 351 350 350 350 350 350 350 351 351 351 352 353 354 353 353 352 351 350 348 347 345 342 342 342 342 341 339 341 331 329 329 328 325 322 319 318 320 318 317 316 316 314 313 314
332 332 332 331 324 322 323 324 323 325 329 330 333 336 338 339 338 336 335 336 336 337 338 340 342 344 346 348 348 347 348 348 349 350 348 348 348 348 348 346 347 348 352 355 355 354 354 353 352 349 345 345 344 342 343 342 340 341 338 332 331 333 328 323 322 321 319 320 320 319 318 316 315 321
340 342 337 334 340 340 340 338 337 336 336 336 336 338 339 340 341 342 341 340 338 339 340 341 343 343 344 344 346 346 347 347 348 349 348 347 347 347 346 343 343 345 346 348 351 354 356 354 353 352 350 348 346 346 345 343 343 343 343 339 334 335 331 326 324 323 322 320 318 319 319 318 317 316
331 332 335 336 337 337 338 338 340 341 342 342 342 342 343 343 343 342 339 338 338 338 338 338 340 341 343 344 345 345 345 346 347 349 348 348 347 347 345 343 344 344 343 344 345 346 350 353 354 353 352 351 350 349 346 343 344 345 345 345 339 338 337 333 329 327 323 320 319 320 320 321 320 319
325 328 330 332 333 334 335 336 336 337 338 339 340 342 337 342 343 342 341 340 340 340 339 340 340 340 341 342 343 344 344 346 347 347 341 347 347 345 345 344 344 345 344 344 344 344 344 348 351 352 352 351 352 351 349 346 345 346 345 345 343 342 343 340 334 330 325 324 323 321 321 322 323 322
326 327 328 329 331 332 334 334 335 336 336 337 338 339 340 342 342 340 342 342 340 340 340 339 340 340 341 341 342 342 343 344 346 347 345 346 346 346 345 344 345 345 345 344 345 345 344 344 346 347 347 347 348 351 350 351 348 347 347 346 346 345 345 344 340 332 328 326 326 326 326 326 326 327
322 324 325 327 328 330 331 333 334 335 336 337 338 339 340 341 343 344 344 342 344 343 342 342 340 341 341 342 341 342 342 341 343 345 345 345 345 345 345 345 344 345 345 345 346 346 345 345 344 343 342 342 342 342 345 345 348 352 347 347 348 347 347 346 341 336 330 328 328 327 328 330 331 331
320 323 324 325 327 329 330 332 333 335 337 339 340 341 341 341 342 344 345 339 344 343 344 344 343 343 342 341 340 339 341 341 342 343 343 344 345 345 344 343 343 343 344 345 347 347 347 344 342 343 342 340 339 338 342 345 338 339 353 349 349 349 347 344 341 334 332 332 330 329 330 332 334 335
321 324 325 327 328 330 332 333 333 334 335 337 338 339 340 341 342 343 345 345 344 344 344 344 343 342 343 343 343 343 343 343 343 342 342 343 343 343 344 344 344 344 344 345 345 344 344 345 345 343 340 336 334 335 338 342 346 343 333 348 349 350 345 344 341 340 337 331 332 332 332 331 334 337
319 322 324 326 329 331 332 333 333 334 335 336 337 337 338 340 341 342 342 343 344 345 346 345 345 344 344 345 343 343 344 343 343 342 342 344 343 343 343 344 344 345 342 342 344 346 347 347 347 343 340 338 337 339 341 340 339 343 336 325 344 350 349 347 345 344 341 335 331 334 334 335 329 324
323 324 325 327 329 331 331 332 333 333 334 335 336 338 339 339 340 342 342 342 343 344 345 344 343 340 344 344 343 346 346 345 343 343 343 344 343 342 343 343 343 343 342 342 342 343 343 344 346 342 341 342 343 345 344 342 344 344 345 337 320 339 350 348 346 346 344 344 340 332 331 330 329 328
326 329 332 333 333 332 332 333 335 336 336 337 338 335 340 341 342 343 344 344 344 345 345 345 345 344 345 346 346 345 341 338 340 341 342 341 339 339 338 334 340 340 339 339 340 341 342 344 346 336 344 346 344 342 339 341 339 343 343 346 327 321 326 334 350 347 346 346 341 337 335 332 330 327
329 331 332 332 332 333 335 336 336 337 338 339 340 341 342 343 344 335 341 340 343 344 345 345 346 345 346 347 343 334 338 338 338 338 337 339 340 339 335 335 338 339 339 338 340 341 343 344 345 343 345 344 342 340 338 339 339 341 344 345 343 326 321 322 330 336 350 347 338 333 329 325 323 327
329 329 330 330 328 328 329 328 328 330 331 332 332 333 334 335 337 338 341 343 344 344 345 345 346 346 346 346 345 342 339 338 338 339 338 337 338 339 339 339 339 339 339 340 342 344 342 343 344 343 343 342 341 341 339 339 340 341 341 342 342 337 337 323 319 322 325 330 331 338 342 337 326 325
325 322 322 321 320 320 320 321 322 325 325 326 326 327 328 329 329 332 334 337 338 339 340 342 343 345 345 346 346 343 341 341 341 340 338 337 337 338 339 339 338 339 339 339 340 342 343 342 343 343 341 340 340 338 338 338 338 338 340 341 341 340 340 332 329 323 321 322 321 320 318 323 329 331
317 316 316 316 317 318 318 318 319 320 320 321 321 321 321 322 323 325 326 327 330 335 338 341 342 342 341 341 341 342 341 333 336 339 338 338 338 337 337 338 338 338 339 341 340 341 342 341 341 342 340 341 341 339 338 337 337 339 339 339 339 340 340 329 329 330 330 332 324 317 319 320 321 322
Wind_Speed
4 4 4 5 3 2 3 3 4 2 0 1 2 2 4 5 2 1 2 2 1 3 2 0 2 1 3 3 2 2 3 4 3 3 3 4 4 6 6 6 5 4 4 3 3 2 3 2 2 1 1 2 3 4 5 6 6 5 5 5 5 5 5 5 5 4 4 3 2 2 3 4 3 3
3 3 4 4 4 2 2 3 3 3 3 1 1 1 2 4 1 2 0 2 2 2 3 0 2 3 4 4 5 2 4 6 5 3 4 4 5 7 7 6 5 5 5 5 4 3 4 3 2 1 1 1 2 3 4 5 5 5 5 5 5 5 5 5 5 4 4 3 2 2 2 3 4 3
3 3 4 4 4 3 3 3 2 3 3 3 1 1 1 0 3 4 3 0 2 1 2 2 2 2 4 4 3 4 4 4 5 4 4 4 7 6 6 7 6 6 6 5 5 5 5 4 3 3 2 1 1 2 4 5 5 5 5 5 5 5 4 4 4 4 4 3 2 1 1 2 3 3
3 3 4 4 4 4 1 1 2 2 3 2 2 1 0 0 1 4 2 2 5 3 2 4 4 4 3 6 5 5 4 3 4 4 4 4 4 4 3 6 7 6 7 6 6 6 6 6 5 5 4 3 2 1 3 5 5 4 4 4 4 4 4 4 3 3 3 3 2 1 1 1 1 2
3 3 4 5 4 3 2 2 1 1 3 3 3 1 0 2 1 1 1 2 6 4 2 3 3 3 2 4 3 4 5 5 4 3 2 2 3 4 4 4 7 8 8 8 7 7 7 7 7 6 6 5 3 2 2 4 5 4 3 3 3 4 4 5 4 3 2 2 2 2 1 1 0 1
4 3 4 5 5 3 4 3 3 2 2 2 3 3 2 4 4 2 2 3 2 6 3 4 3 3 0 3 1 1 4 5 3 4 4 2 2 3 4 5 5 9 9 9 9 8 8 8 8 7 7 7 5 3 2 3 4 4 4 3 2 3 4 4 5 4 3 3 2 2 2 2 1 1
4 3 3 5 4 3 3 3 3 3 3 2 3 4 2 3 5 3 3 2 3 5 6 3 3 2 1 1 3 4 3 3 3 4 5 5 4 3 4 5 5 8 11 10 10 10 9 9 9 9 9 8 7 5 4 3 4 5 4 3 2 2 3 3 4 5 5 4 3 3 3 3 2 2
5 4 4 4 4 3 3 3 3 4 3 3 3 3 3 2 4 4 3 4 4 3 4 4 3 3 3 3 3 3 4 4 5 3 5 4 4 4 5 5 5 7 12 11 11 10 10 10 9 10 9 9 8 7 6 5 5 5 5 5 4 3 2 2 3 5 5 5 3 4 4 4 3 3
6 6 5 5 4 3 4 4 4 4 4 5 4 4 4 3 4 3 3 4 4 4 6 5 3 2 2 2 3 3 4 5 5 4 4 5 5 2 4 4 5 5 9 11 11 10 10 10 10 10 10 9 9 9 7 7 5 5 6 6 5 4 3 2 2 3 4 4 2 3 4 4 4 3
6 6 6 6 5 4 5 5 5 4 5 5 5 5 4 4 4 4 4 3 3 4 6 5 5 2 4 3 3 4 4 5 6 7 6 4 3 2 2 4 4 2 4 5 6 6 7 9 10 10 10 10 10 10 9 8 7 6 6 6 6 5 4 4 3 3 3 3 3 2 3 4 5 4
7 7 6 6 6 6 6 6 6 5 5 5 5 6 5 4 4 4 5 4 4 4 4 4 5 5 4 4 5 5 2 3 4 5 6 6 4 2 4 5 3 2 4 5 7 7 6 6 6 8 10 11 11 11 10 10 10 8 8 7 7 6 6 5 4 4 4 4 3 3 2 1 2 4
7 7 7 7 7 7 7 7 7 6 7 5 6 6 5 5 4 5 5 4 4 4 4 5 5 3 3 3 3 3 3 4 5 3 4 6 7 7 3 4 5 3 4 5 5 5 5 6 7 8 8 11 13 11 10 12 11 11 9 8 7 7 6 6 5 5 5 5 4 3 2 2 0 1
7 6 7 7 7 7 10 12 11 10 9 6 7 7 5 6 6 6 5 6 5 6 5 6 4 4 5 5 5 6 5 6 7 3 1 4 6 6 6 6 5 5 5 5 4 5 6 6 6 5 6 8 9 11 10 8 10 13 10 10 9 8 8 7 6 6 6 5 5 5 4 3 2 1
6 7 6 7 11 13 14 14 15 15 14 13 10 8 6 7 6 6 6 7 6 6 6 7 6 6 7 7 6 5 5 4 3 5 5 5 7 5 5 6 5 5 4 4 5 7 4 6 6 4 8 8 6 7 6 9 11 11 12 11 10 10 9 8 7 7 7 7 6 6 5 5 4 2
7 6 6 6 8 10 11 11 14 15 15 14 15 15 13 10 8 7 7 7 6 6 7 6 5 6 8 8 6 6 7 4 5 5 5 6 5 5 5 7 7 2 6 4 4 6 3 5 7 7 8 8 6 7 9 14 14 15 13 12 11 11 10 9 9 8 9 8 8 7 7 6 5 4
7 7 7 6 7 7 8 8 7 9 13 14 15 15 15 15 15 14 10 8 6 5 7 7 8 6 7 8 5 6 4 7 5 6 5 5 6 7 6 3 4 4 4 5 3 8 2 4 5 7 9 8 7 9 12 14 14 14 15 14 13 12 12 11 9 9 10 9 8 8 8 7 6 5
8 7 7 7 7 7 12 10 8 7 7 10 13 14 13 12 12 12 13 13 10 7 7 8 8 8 7 7 8 5 4 3 5 5 5 4 4 4 5 6 5 7 3 4 3 5 3 6 5 7 9 7 6 8 11 15 15 16 15 15 14 13 13 12 11 11 9 9 10 10 10 9 8 6
8 8 8 8 8 8 7 7 7 6 6 6 5 5 6 7 10 14 15 15 15 9 7 7 9 9 5 9 9 7 3 4 7 7 7 5 5 6 8 8 7 6 2 5 3 4 3 5 5 7 9 7 6 7 10 14 16 16 16 16 16 15 14 13 12 11 11 11 11 10 10 10 9 8
9 9 9 8 10 9 8 8 9 8 8 7 8 7 7 7 8 7 8 9 9 9 9 9 11 12 8 9 10 8 4 6 8 8 7 5 5 6 3 3 4 7 5 4 2 7 7 3 4 7 8 6 7 7 8 13 15 16 16 16 16 16 15 14 13 12 11 11 11 11 11 10 9 8
6 6 7 7 8 9 9 11 15 13 9 7 8 8 8 8 8 8 10 13 12 10 10 10 12 12 13 12 10 10 8 7 6 4 2 2 4 6 7 9 7 8 4 5 5 4 5 5 6 6 5 4 6 7 6 9 12 14 16 16 16 16 15 15 13 12 12 11 11 11 11 10 9 9
7 7 7 7 8 9 9 13 15 16 13 8 9 9 10 9 9 10 8 11 15 16 16 17 18 18 18 17 15 15 15 11 6 3 5 8 8 7 8 8 7 10 6 3 6 4 6 7 5 7 6 3 5 7 7 4 5 10 13 15 16 16 15 15 14 13 12 12 12 11 11 10 9 8
7 8 12 10 9 10 11 15 16 17 13 9 10 10 9 10 10 10 8 6 8 15 18 18 19 18 18 17 16 14 14 16 7 5 8 11 6 7 7 9 8 8 5 7 6 3 8 6 3 5 3 3 4 5 6 2 1 4 8 11 13 14 14 14 13 12 12 12 12 12 11 10 8 5
6 7 9 14 14 11 12 15 15 16 12 9 9 10 9 10 11 10 7 8 10 8 6 7 8 9 12 12 11 12 17 16 9 8 10 8 7 9 9 9 7 7 8 8 9 6 6 4 4 4 1 3 5 2 3 2 2 2 3 4 7 11 12 12 11 12 12 11 12 12 12 11 8 5
6 7 8 11 15 17 17 16 15 15 15 11 9 7 8 9 12 9 7 7 8 9 9 10 7 8 7 6 7 7 8 9 9 10 10 9 9 9 9 9 7 8 6 2 7 7 3 3 4 4 7 4 4 2 3 3 2 2 3 4 5 7 8 8 9 11 11 11 12 12 12 11 9 5
6 7 7 7 10 13 15 16 17 15 12 9 6 6 8 9 11 9 7 9 10 9 9 9 9 7 5 6 6 6 7 8 8 8 9 9 10 9 9 9 8 10 11 10 7 4 4 3 4 2 3 4 4 2 2 2 3 5 5 6 6 4 5 7 5 6 8 12 13 13 13 12 13 10
7 8 7 6 8 10 8 7 7 8 7 8 6 9 12 14 14 11 9 8 7 8 8 8 8 7 6 6 6 7 8 9 9 9 8 8 9 9 10 10 10 9 10 10 11 8 6 5 8 6 4 3 7 5 4 4 5 4 4 5 6 6 7 7 6 7 7 6 7 10 11 13 13 15
7 6 6 7 12 13 11 9 10 9 10 6 7 11 10 11 12 10 7 7 8 9 9 9 9 8 7 8 8 8 8 8 7 7 6 6 7 9 9 10 10 11 11 10 4 7 7 6 4 7 9 6 6 4 4 5 4 1 2 6 6 6 6 6 8 9 7 7 7 8 10 12 14 15
7 7 6 6 10 12 12 13 12 12 10 9 13 12 11 10 7 4 5 6 7 8 8 9 9 9 8 8 8 9 8 8 7 7 6 7 8 8 8 9 11 11 11 11 10 7 7 8 7 7 8 7 7 8 9 4 3 5 5 3 5 6 6 7 8 7 7 6 5 6 6 8 9 9
7 8 11 12 13 12 13 15 14 11 12 14 14 14 12 7 4 4 4 5 5 6 8 9 9 9 9 9 9 8 7 6 4 5 6 6 6 7 8 8 8 9 8 9 10 10 9 9 11 9 6 6 8 9 7 10 5 5 6 4 3 7 8 8 8 9 8 6 8 8 10 11 8 8
14 14 14 14 12 10 8 6 5 6 8 12 13 13 10 5 6 5 5 5 5 7 7 8 9 9 8 8 8 7 6 6 8 7 8 8 9 7 7 7 8 8 9 10 11 10 10 10 10 9 8 7 8 10 9 9 9 8 5 7 6 0 6 8 9 9 8 9 10 10 10 8 8 7
8 10 9 8 10 10 12 11 10 10 10 9 8 7 7 7 7 7 7 8 8 8 8 8 8 8 9 8 7 8 8 9 10 8 8 8 9 8 7 7 10 10 9 9 9 10 10 10 9 8 9 10 8 10 10 8 10 9 7 7 7 9 5 8 8 9 10 9 7 7 7 6 8 9
7 8 8 9 7 7 7 6 5 5 6 7 7 7 7 7 7 9 11 10 8 9 9 9 8 8 7 8 10 9 9 10 10 8 7 9 9 7 5 5 11 10 10 9 9 8 9 9 8 8 10 10 11 10 7 8 10 10 10 7 8 9 5 8 9 10 10 7 6 9 10 9 9 9
8 7 7 8 9 7 8 8 7 6 6 6 6 7 6 6 6 6 6 7 9 9 8 9 10 10 9 10 9 9 9 10 11 8 7 8 9 7 6 10 11 11 11 11 8 5 4 6 7 9 10 10 12 12 10 10 9 9 10 9 8 9 8 8 8 9 7 7 10 9 9 9 9 10
6 7 7 8 7 8 7 8 8 8 7 8 8 7 6 7 7 7 7 8 8 8 8 8 8 9 10 10 10 9 10 10 9 7 7 8 6 7 9 9 11 11 11 10 8 7 5 6 6 8 9 10 9 11 11 12 12 10 10 9 9 10 10 8 9 8 11 10 10 10 9 10 10 10
5 6 7 8 7 7 7 8 8 7 8 8 8 8 7 7 8 8 7 8 7 7 7 8 9 9 9 10 10 10 9 9 9 7 6 7 8 9 10 10 11 11 10 9 9 6 7 7 7 7 6 7 8 9 13 15 11 12 10 11 9 11 10 10 9 9 10 8 6 9 10 8 9 9
6 5 6 7 8 7 8 8 7 8 8 8 8 8 9 9 8 8 7 6 6 7 7 8 8 9 9 10 10 10 10 9 8 8 7 7 8 8 8 10 11 11 9 9 11 8 8 8 7 8 9 7 7 10 10 18 21 12 12 12 11 10 10 8 8 8 8 8 9 9 10 12 12 9
8 7 6 7 7 7 8 9 8 8 8 8 8 8 8 9 9 8 8 6 6 7 8 8 8 8 9 9 9 9 9 8 9 8 9 8 8 8 9 10 10 11 10 11 11 10 5 5 4 6 7 7 8 11 14 1 14 19 10 10 8 5 6 4 5 6 9 10 10 10 12 12 13 9
7 6 7 7 7 7 8 8 8 8 8 8 8 8 8 9 9 9 7 7 8 8 9 9 9 9 9 8 8 9 9 8 7 8 9 8 8 9 9 11 11 12 13 12 6 2 4 7 7 7 5 8 11 14 14 9 5 10 14 12 10 8 5 6 6 8 7 6 10 11 10 10 14 12
6 6 7 8 8 7 7 8 8 8 9 9 8 8 8 8 8 8 8 8 8 9 9 9 9 8 8 7 7 7 7 8 7 8 9 10 11 11 12 11 12 10 4 5 5 6 7 8 9 9 10 12 14 14 13 9 10 7 7 16 12 10 8 8 8 7 7 8 10 9 9 10 5 3
6 6 7 7 8 7 7 8 8 8 9 9 9 8 8 9 8 8 8 8 8 8 8 9 8 7 7 7 7 8 9 8 7 12 12 11 10 11 11 10 10 10 9 10 10 10 8 8 7 9 11 13 14 11 5 5 7 2 5 9 17 15 12 5 8 9 9 10 9 8 10 5 8 4
6 6 6 6 6 6 7 7 8 8 9 9 9 9 9 9 9 9 8 9 8 8 8 8 7 7 8 8 7 3 1 3 9 11 10 10 11 10 12 10 10 9 9 12 13 12 12 9 8 15 14 11 7 2 3 8 13 13 10 12 16 21 19 13 10 10 12 7 8 9 8 8 10 8
6 6 6 5 6 6 6 6 7 8 9 9 9 8 8 8 7 10 9 10 9 9 8 8 8 8 8 7 4 4 6 10 11 10 9 9 10 11 12 9 11 11 9 12 14 14 6 6 9 11 10 6 5 8 12 13 14 13 12 9 3 10 20 23 22 19 17 9 7 5 4 2 2 7
5 5 4 3 4 5 6 7 7 8 9 9 9 9 9 10 9 10 9 9 9 8 7 7 7 6 6 6 6 6 7 9 10 9 9 10 11 12 11 11 11 12 11 13 13 10 5 6 7 8 8 8 10 10 12 14 12 11 12 11 9 3 6 11 17 19 20 15 12 11 11 10 6 6
2 3 4 4 5 5 6 7 7 7 8 8 9 9 9 9 10 10 9 9 10 9 9 9 8 8 8 7 7 6 6 8 8 8 9 10 10 11 11 11 10 10 10 10 11 10 7 7 9 8 8 9 9 9 12 13 12 12 12 11 9 6 6 1 1 5 8 10 13 12 12 14 15 16
2 3 3 4 4 4 5 6 6 7 8 8 9 10 10 10 10 10 9 9 10 11 11 9 8 8 9 10 10 9 7 7 8 7 7 7 8 10 10 10 10 10 11 11 10 12 10 8 8 9 11 13 10 11 13 13 13 11 11 9 12 11 6 3 4 5 5 7 9 10 12 14 16 16
Wind_Direction
285 300 294 286 292 283 300 323 322 327 2 153 150 146 137 151 112 323 347 297 286 308 5 248 294 1 324 303 241 237 254 236 194 187 204 214 225 217 196 174 185 204 205 173 166 184 198 208 227 276 340 48 62 75 83 91 88 85 83 79 67 52 38 28 20 16 28 33 28 35 49 64 70 37
275 289 299 299 303 284 308 310 322 317 291 335 127 130 147 137 144 175 145 281 235 275 313 332 314 331 320 299 301 268 249 236 191 197 209 215 226 212 193 183 193 207 213 195 176 204 209 217 224 256 319 18 66 78 88 93 97 91 88 86 82 67 45 32 24 18 24 32 28 21 36 55 63 62
262 284 286 298 296 269 273 313 307 317 329 346 69 23 109 106 134 145 129 11 288 228 303 296 297 315 301 295 277 272 256 247 193 196 213 223 227 195 197 194 199 208 213 206 185 202 222 212 221 222 236 279 44 100 101 104 102 97 89 88 88 83 68 49 38 30 25 33 35 21 32 33 37 42
272 279 287 282 278 285 292 319 331 324 336 341 357 48 86 90 121 129 124 189 258 274 248 276 293 294 305 318 338 321 331 317 230 213 217 228 200 177 208 208 208 211 216 212 194 204 218 219 220 230 236 239 258 221 121 117 111 104 95 89 88 91 87 83 75 55 32 30 49 82 55 31 24 28
265 279 283 281 272 263 258 253 230 305 307 334 339 13 134 220 170 151 148 246 284 296 267 265 271 302 328 328 7 356 326 328 320 295 264 205 177 193 203 211 214 216 218 213 206 205 214 222 224 232 242 244 243 240 145 127 126 123 115 103 99 98 102 105 101 87 70 46 58 106 113 87 70 64
255 258 264 279 272 257 248 276 299 279 307 307 316 313 273 287 277 204 180 223 219 281 317 311 301 290 331 322 285 326 327 322 321 306 283 270 227 209 198 210 221 217 218 216 210 209 214 221 229 234 241 248 251 235 200 154 147 146 139 135 125 114 113 111 114 114 112 106 108 136 152 151 141 147
253 258 254 260 263 263 260 273 270 280 279 283 291 288 269 261 271 253 205 187 251 269 279 251 297 283 309 283 285 312 297 288 295 290 288 259 229 214 197 211 229 217 218 218 215 212 214 220 229 236 242 248 252 250 226 180 162 153 147 156 151 131 118 118 125 131 131 130 135 152 160 152 148 158
241 244 249 256 253 253 242 259 269 270 266 266 262 269 287 285 281 278 223 208 217 238 272 299 273 283 314 301 293 286 299 297 304 277 277 277 232 210 200 210 221 220 215 219 219 216 216 220 225 234 240 246 251 252 243 214 178 165 167 169 169 148 138 141 136 138 139 143 144 152 156 150 151 151
222 231 233 244 240 234 241 256 257 256 259 257 246 243 256 261 264 279 249 242 219 235 257 273 276 268 276 255 277 280 290 309 307 306 293 286 292 232 222 218 228 226 214 225 228 224 223 224 226 232 239 245 251 254 249 236 209 188 180 176 172 167 165 178 162 144 141 149 173 158 155 154 149 151
220 223 229 233 226 224 223 240 245 249 250 252 250 248 247 244 250 261 274 246 250 236 243 242 287 319 263 296 275 271 278 290 301 304 298 301 279 227 236 239 225 168 178 213 232 240 243 242 238 238 241 245 248 250 252 250 236 208 190 187 185 177 176 181 179 171 168 161 151 153 160 164 154 148
221 226 230 232 227 226 224 230 233 235 239 236 243 241 245 245 235 249 252 249 231 226 249 271 240 259 265 229 278 285 279 259 240 260 300 306 291 263 231 254 246 196 216 229 235 235 237 242 242 242 243 248 249 249 250 255 250 230 211 196 191 182 181 190 195 193 188 181 168 161 167 181 158 147
219 221 225 228 224 221 224 223 232 221 231 225 238 241 238 243 235 243 247 250 242 247 250 243 265 250 273 301 269 293 339 315 307 248 226 268 289 293 269 240 242 229 209 233 231 229 236 250 250 252 248 247 249 249 253 254 255 247 222 209 203 195 192 195 201 208 207 199 191 190 197 195 86 80
221 222 222 224 225 221 224 222 222 221 217 216 231 244 229 238 239 246 242 236 242 257 260 276 273 286 285 271 281 294 284 259 250 270 162 262 262 274 300 282 244 216 203 227 234 238 218 236 241 235 253 245 238 248 238 252 250 250 236 216 213 202 199 196 207 215 217 217 211 206 208 220 203 213
238 235 231 231 225 224 228 230 229 231 229 224 220 229 218 225 231 237 242 244 239 239 249 249 250 261 261 261 248 249 250 247 276 297 284 279 285 309 283 287 264 212 190 189 229 245 206 213 250 222 244 249 223 240 228 236 234 239 235 225 214 208 202 201 200 216 222 224 221 217 216 216 221 215
248 251 248 250 252 249 246 245 240 237 238 236 235 236 229 220 214 226 233 240 233 230 234 243 240 239 256 259 244 240 254 249 244 256 269 270 286 282 287 289 308 258 185 206 227 267 197 180 230 240 242 246 224 228 234 235 233 235 232 226 217 212 207 203 204 210 222 224 229 228 226 226 218 218
231 242 246 247 244 243 243 244 248 247 244 243 242 244 244 238 230 222 217 231 243 229 236 245 242 238 245 259 254 255 244 258 263 254 255 259 260 272 267 247 242 261 183 189 193 258 213 177 228 261 251 238 226 228 233 236 234 233 230 226 220 214 209 204 197 203 217 222 226 229 229 229 226 217
224 224 230 239 239 242 243 242 243 242 245 240 238 243 250 256 256 260 257 249 239 224 227 235 247 231 240 252 256 234 232 218 249 264 258 246 235 233 248 247 263 277 195 194 243 258 228 172 213 240 262 246 227 235 234 232 230 229 226 224 221 215 211 208 207 208 208 215 227 231 234 233 231 225
231 228 226 231 238 238 237 234 232 229 231 237 239 237 232 239 246 240 232 236 246 246 236 232 242 246 205 238 249 247 214 231 252 257 259 254 259 257 247 245 241 256 150 206 210 278 262 187 199 231 257 260 254 234 235 226 225 225 222 220 219 216 212 210 208 209 211 218 224 230 234 237 236 232
241 236 230 230 237 241 237 234 231 234 238 243 248 250 248 238 239 237 236 231 227 226 226 231 239 251 237 233 247 257 224 220 244 247 257 258 247 257 277 317 257 272 230 201 178 257 273 168 189 233 245 255 259 255 245 231 224 220 217 216 216 215 213 210 209 209 210 214 222 227 231 236 239 239
255 255 251 247 249 248 247 246 241 239 240 242 247 251 253 255 248 242 232 229 227 224 222 225 236 243 246 240 239 246 248 245 249 269 326 318 270 276 283 274 281 275 252 176 195 247 264 238 225 260 230 208 250 264 263 248 224 218 214 213 213 213 213 211 208 208 208 212 219 223 228 232 238 242
228 228 229 232 242 251 251 249 243 242 237 239 241 242 247 249 253 255 250 231 232 234 232 231 231 238 245 249 247 249 255 256 265 323 314 274 262 270 274 270 271 266 273 229 194 210 260 248 219 264 279 262 261 269 260 244 228 223 216 212 212 212 213 211 209 207 208 211 217 221 224 227 231 240
253 246 239 229 228 234 241 243 241 240 231 232 235 238 243 249 251 257 258 262 244 227 232 236 238 239 244 249 254 255 257 258 236 180 236 250 263 262 247 262 260 279 292 256 156 171 238 259 190 225 289 332 261 255 269 254 200 203 223 218 213 213 214 213 212 208 210 211 215 220 221 222 221 226
241 248 250 246 243 240 242 237 235 236 225 227 227 227 233 246 253 252 247 245 258 262 253 251 245 254 248 246 243 246 246 248 233 203 223 244 234 248 253 252 273 290 271 254 156 201 255 243 244 184 286 269 275 259 282 242 198 181 192 203 215 218 214 216 217 217 215 213 217 221 219 218 204 215
250 247 250 247 241 239 242 242 238 234 223 224 233 228 231 242 256 260 255 245 249 261 260 262 248 240 241 240 235 239 246 244 232 216 212 217 218 229 247 246 231 239 255 274 173 189 262 182 254 189 199 229 276 273 351 317 229 202 182 190 219 216 208 216 228 226 224 220 222 224 221 214 198 207
264 265 258 263 260 250 244 241 242 240 236 238 253 247 243 240 257 275 264 261 250 256 260 261 264 259 245 240 235 237 239 241 236 219 209 212 208 213 229 238 238 245 248 252 167 186 239 193 245 207 237 189 224 249 280 288 253 212 199 196 214 194 185 214 214 223 221 225 227 227 226 216 206 205
268 265 273 275 281 287 285 285 270 261 243 228 222 240 241 264 282 282 277 284 282 272 268 266 264 263 259 253 241 236 240 243 244 236 221 210 210 209 217 220 232 248 250 248 177 209 226 255 235 241 235 224 263 226 261 269 247 226 190 199 208 204 187 203 205 225 215 213 222 221 223 221 218 214
284 295 298 294 299 316 320 301 291 293 298 292 257 259 265 263 270 283 280 274 274 271 268 266 265 259 254 258 258 254 253 250 246 247 232 221 212 217 221 222 226 236 250 269 208 206 204 234 208 211 241 224 249 264 224 249 266 108 218 217 213 208 195 192 212 222 215 212 227 212 218 228 227 222
276 284 284 294 323 324 320 316 309 302 294 277 283 285 277 279 285 270 269 263 257 263 267 264 263 260 253 248 251 251 250 255 248 239 235 234 226 225 228 227 231 233 242 250 254 227 208 233 243 227 227 231 235 247 262 249 220 184 209 198 210 215 201 199 219 227 223 215 215 210 207 227 223 215
255 256 267 278 282 287 285 279 281 281 273 267 264 266 268 268 262 253 241 251 251 254 255 259 263 264 257 251 254 259 260 261 266 261 262 249 242 235 236 240 236 234 230 236 240 238 226 227 242 245 230 219 228 245 237 256 233 222 195 148 227 217 208 203 213 217 222 209 217 212 217 220 215 203
284 287 284 283 278 267 257 257 253 260 265 266 261 258 246 231 234 230 236 239 237 243 249 250 254 258 264 261 255 253 253 255 252 245 253 258 260 249 249 258 256 241 233 232 233 235 231 229 232 238 242 235 223 243 242 251 260 249 176 202 216 86 198 197 209 215 211 215 217 219 229 218 222 191
288 289 289 285 280 276 270 263 257 254 267 275 270 257 245 239 235 233 225 231 235 241 245 250 250 254 255 261 264 254 244 247 249 236 238 242 250 248 248 250 263 262 249 238 233 230 230 232 229 217 231 244 241 233 243 237 254 259 228 205 174 224 201 193 207 213 211 218 219 226 233 220 223 215
308 310 305 294 287 283 283 269 255 246 238 244 254 254 246 241 238 240 240 239 239 246 247 251 256 259 256 255 251 250 245 245 249 238 226 233 247 239 223 245 258 261 264 251 245 234 225 229 229 222 222 231 242 248 233 231 240 246 249 213 209 233 178 190 200 215 208 194 207 229 224 215 221 219
312 313 302 300 296 294 292 295 286 278 266 256 246 251 249 244 241 234 217 227 234 237 241 246 248 256 257 258 255 252 252 250 251 244 238 236 240 242 200 238 255 262 265 267 255 242 218 227 220 223 225 229 231 237 243 252 239 231 239 231 209 226 219 213 202 204 159 170 219 226 234 222 222 221
296 297 299 287 289 292 296 295 294 296 298 293 289 281 275 265 259 243 230 228 237 234 233 243 249 252 254 256 255 252 252 258 255 246 225 244 227 235 238 241 250 253 254 263 268 259 237 223 215 226 231 234 233 226 223 235 246 238 231 230 210 222 226 209 211 191 178 196 200 216 231 234 225 221
282 295 294 290 285 282 282 281 284 287 287 287 288 286 284 275 265 254 244 238 230 230 234 242 245 249 249 251 253 255 255 257 259 255 226 230 232 234 242 247 254 257 257 261 260 241 217 225 215 225 232 235 248 251 221 219 233 235 243 239 219 221 224 205 202 194 193 205 183 217 235 241 240 223
279 273 276 282 283 284 284 278 277 275 274 276 276 279 280 275 268 261 256 240 230 236 240 243 245 245 246 248 250 250 253 253 257 254 250 232 235 240 243 247 253 260 260 255 256 235 212 217 203 221 240 244 246 264 260 216 213 224 227 239 230 223 223 207 198 186 183 199 202 209 227 237 240 224
280 278 271 272 275 274 274 280 280 277 275 274 275 273 274 279 279 271 266 258 255 252 254 250 248 245 246 248 252 252 252 251 255 252 250 248 244 244 247 253 250 252 255 251 244 246 220 229 202 215 237 262 263 265 267 2 234 234 227 244 263 241 230 198 174 190 203 200 202 203 220 228 243 233
266 269 274 273 270 273 271 275 279 279 277 272 271 271 268 268 273 275 277 275 270 270 266 261 258 254 255 252 249 251 248 244 247 255 252 248 245 241 238 245 250 244 243 252 268 257 196 207 202 188 183 222 236 244 260 245 206 247 226 230 243 239 184 182 193 213 213 200 213 216 219 237 239 242
250 252 254 264 269 272 273 275 274 276 277 278 276 273 275 274 273 275 274 267 264 264 268 267 265 260 257 256 249 254 258 254 246 247 248 245 234 236 238 239 247 259 304 282 238 215 207 208 202 185 191 211 226 236 237 242 244 234 197 202 220 245 225 193 210 204 199 198 219 228 230 242 322 324
243 232 244 248 262 261 263 271 274 270 275 273 274 273 274 277 273 273 273 272 268 266 267 268 268 266 259 254 254 250 250 247 250 249 246 248 247 243 246 245 246 250 250 258 258 245 228 226 198 192 204 219 227 242 278 266 275 208 245 245 212 212 234 201 213 221 226 210 195 193 228 218 240 236
271 262 258 256 267 275 278 278 277 278 277 278 276 273 270 270 274 270 268 269 270 272 272 270 265 255 256 257 256 260 211 207 251 260 266 266 261 253 244 239 249 241 241 251 253 253 243 228 210 204 208 227 243 6 314 276 264 263 238 236 224 218 224 218 216 220 240 218 181 206 216 208 228 229
265 271 281 292 285 287 294 322 337 335 333 334 331 332 328 320 312 304 290 282 281 279 276 277 278 275 271 273 250 195 228 246 252 252 248 253 256 253 248 240 245 246 233 245 248 250 242 168 192 195 203 194 164 200 233 236 247 259 263 261 252 199 213 220 218 218 225 210 163 181 168 197 215 244
276 288 300 323 339 350 358 355 350 344 338 339 338 337 333 334 334 332 332 325 320 318 314 306 298 293 285 275 265 249 231 240 248 251 254 250 252 258 257 246 240 243 238 247 254 255 199 184 178 184 186 188 203 202 228 238 242 254 269 277 265 187 226 219 218 228 240 236 217 213 199 188 148 225
356 6 3 1 359 356 356 351 342 338 333 331 328 329 332 332 328 329 332 332 323 315 317 306 300 299 305 306 303 286 245 252 258 256 251 257 259 257 257 257 251 250 248 248 259 256 226 205 205 189 184 218 211 209 230 245 251 243 250 255 268 256 234 231 297 281 270 256 254 254 255 243 234 246
4 7 359 358 355 352 348 339 336 332 332 331 333 333 329 326 320 321 322 322 317 317 314 315 316 323 321 306 290 277 257 249 261 271 270 270 265 267 267 263 258 251 248 246 249 258 247 223 211 208 212 227 221 218 229 233 243 255 253 251 265 263 243 164 196 230 232 247 237 220 241 253 261 272